Home   Weather   Providence   Past weeks
Flag for USA

Past Weather in Providence, Rhode Island, USA — Yesterday and Last 2 Weeks

Now
69 °F

Scattered clouds.


Feels Like: 69 °F
Forecast: 68 / 55 °F
Wind: 16 mph from Northwest

Location: Green State Airport

Current Time: May 21, 2019 at 3:45:51 pm

Latest Report: May 21, 2019 at 2:51 pm


Visibility: 10 mi

Pressure: 29.79 "Hg

Humidity: 35%

Dew Point: 40 °F

Location of ProvidenceLocation

Past Weather in Providence — Graph

°F

Providence Temperature Yesterday

Maximum temperature yesterday: 85 °F (at 2:51 pm)
Minimum temperature yesterday: 62 °F (at 5:01 am)
Average temperature yesterday: 70 °F

High & Low Weather Summary for the Past Weeks

 TemperatureHumidityPressure
High85 °F (May 20, 2:51 pm)100% (May 20, 5:39 am)30.39 "Hg (May 20, 5:39 am)
Low41 °F (May 7, 5:51 am)31% (May 11, 4:51 pm)29.67 "Hg (May 20, 4:51 pm)
Average55 °F73%29.96 "Hg
* Reported May 6 1:12 pm — May 21 1:51 pm, Providence. Weather by CustomWeather, © 2019

Note: Actual official high and low records may vary slightly from our data, if they occured in-between our weather recording intervals... More about our weather records

Advertising

Providence Weather History for the Previous 24 Hours

Scroll right to see more
 ConditionsComfort  
Time TempWeatherWind HumidityBarometerVisibility
1:51 pm
Tue, May 21
68 °FPassing clouds.16 mph36%29.79 "Hg10 mi
12:51 pm66 °FPassing clouds.16 mph37%29.80 "Hg10 mi
11:51 am64 °FPassing clouds.20 mph37%29.80 "Hg10 mi
10:51 am62 °FPartly sunny.18 mph41%29.80 "Hg10 mi
9:51 am60 °FPassing clouds.14 mph47%29.81 "Hg10 mi
8:51 am59 °FPassing clouds.20 mph51%29.81 "Hg10 mi
7:51 am57 °FPassing clouds.22 mph55%29.80 "Hg10 mi
6:51 am56 °FPassing clouds.14 mph60%29.77 "Hg10 mi
5:51 am55 °FSunny.14 mph57%29.77 "Hg10 mi
4:51 am57 °FClear.13 mph58%29.75 "Hg10 mi
3:51 am58 °FClear.9 mph62%29.75 "Hg10 mi
2:51 am61 °FClear.12 mph62%29.73 "Hg10 mi
1:51 am63 °FClear.10 mph65%29.71 "Hg10 mi
12:51 am67 °FClear.14 mph79%29.71 "Hg10 mi
11:51 pm
Mon, May 20
66 °FPassing clouds.6 mph93%29.70 "Hg9 mi
10:51 pm63 °FFog.5 mph97%29.68 "Hg6 mi
9:51 pm64 °FFog.6 mph97%29.69 "Hg6 mi
8:51 pm67 °FFog.8 mph93%29.69 "Hg6 mi
7:51 pm71 °FLight rain. Broken clouds.6 mph87%29.69 "Hg9 mi
7:42 pm70 °FLight rain. Fog.7 mph93%29.70 "Hg4 mi
7:19 pm71 °FThunderstorms. Mostly cloudy.3 mph84%29.70 "Hg3 mi
6:51 pm75 °FBroken clouds.5 mph69%29.69 "Hg10 mi
6:21 pm77 °FBroken clouds.9 mph62%29.69 "Hg10 mi
6:03 pm78 °FThunderstorms. Broken clouds.14 mph60%29.70 "Hg10 mi
4:51 pm83 °FScattered clouds.24 mph53%29.67 "Hg10 mi
3:51 pm85 °FPartly sunny.18 mph51%29.68 "Hg10 mi
Weather by CustomWeather, © 2019

See weather overview